| time (UTC) | temp F | wind direction | speed MPH | gust MPH | rain 1hr in | rain 24hr in | rain mn in | humidity % | barometer mb |
| 20260503184503 | 49 | 283 | 3.0 | 10.0 | 0.00 | 0.00 | 0.00 | 48 | 1014.2 |
| 20260503183944 | 49 | 336 | 4.0 | 10.0 | 0.00 | 0.00 | 0.00 | 50 | 1011.9 |
| 20260503183107 | 49 | 343 | 4.0 | 8.0 | 0.00 | 0.00 | 0.00 | 49 | 1014.4 |
| 20260503183044 | 49 | 320 | 4.0 | 9.0 | 0.00 | 0.00 | 0.00 | 49 | 1012.0 |
| 20260503182145 | 50 | 319 | 3.0 | 8.0 | 0.00 | 0.00 | 0.00 | 48 | 1011.9 |
| 20260503181506 | 50 | 343 | 4.0 | 12.0 | 0.00 | 0.00 | 0.00 | 47 | 1014.2 |
| 20260503181244 | 50 | 331 | 4.0 | 12.0 | 0.00 | 0.00 | 0.00 | 47 | 1012.0 |
| 20260503180346 | 52 | 346 | 4.0 | 11.0 | 0.00 | 0.00 | 0.00 | 45 | 1011.7 |
| 20260503180109 | 51 | 314 | 4.0 | 11.0 | 0.00 | 0.00 | 0.00 | 45 | 1014.2 |
| 20260503175444 | 52 | 337 | 4.0 | 10.0 | 0.00 | 0.00 | 0.00 | 47 | 1011.8 |
| 20260503174545 | 50 | 352 | 5.0 | 10.0 | 0.00 | 0.00 | 0.00 | 50 | 1012.0 |
| 20260503174503 | 50 | 330 | 5.0 | 10.0 | 0.00 | 0.00 | 0.00 | 47 | 1014.4 |
| 20260503173644 | 50 | 321 | 4.0 | 9.0 | 0.00 | 0.00 | 0.00 | 47 | 1012.1 |
| 20260503173111 | 49 | 333 | 4.0 | 10.0 | 0.00 | 0.00 | 0.00 | 50 | 1014.6 |
| 20260503172744 | 50 | 335 | 4.0 | 11.0 | 0.00 | 0.00 | 0.00 | 45 | 1012.2 |
| 20260503171844 | 50 | 327 | 5.0 | 12.0 | 0.00 | 0.00 | 0.00 | 46 | 1012.2 |
| 20260503171502 | 50 | 354 | 4.0 | 10.0 | 0.00 | 0.00 | 0.00 | 49 | 1014.7 |
| 20260503150344 | 45 | 357 | 4.0 | 11.0 | 0.00 | 0.00 | 0.00 | 54 | 1013.1 |
| 20260503130644 | 39 | 343 | 3.0 | 8.0 | 0.00 | 0.00 | 0.00 | 70 | 1013.4 |
| 20260503130104 | 38 | 95 | 2.0 | 4.0 | 0.00 | 0.00 | 0.00 | 70 | 1016.1 |
| 20260503090344 | 31 | 331 | 2.0 | 4.0 | 0.00 | 0.00 | 0.00 | 88 | 1012.5 |
| 20260503081603 | 32 | 312 | 2.0 | 6.0 | 0.00 | 0.00 | 0.00 | 86 | 1015.0 |
| 20260503072444 | 32 | 321 | 2.0 | 6.0 | 0.00 | 0.00 | 0.00 | 85 | 1012.1 |
| 20260503071615 | 32 | 325 | 1.0 | 4.0 | 0.00 | 0.00 | 0.00 | 85 | 1014.8 |
| 20260503071544 | 32 | 305 | 2.0 | 4.0 | 0.00 | 0.00 | 0.00 | 85 | 1012.1 |
| 20260503070644 | 32 | 324 | 2.0 | 7.0 | 0.00 | 0.00 | 0.00 | 85 | 1012.1 |
| 20260503054603 | 31 | 231 | 1.0 | 4.0 | 0.00 | 0.00 | 0.00 | 83 | 1015.1 |
| 20260503054544 | 32 | 300 | 1.0 | 4.0 | 0.00 | 0.00 | 0.00 | 83 | 1012.4 |
| 20260503053646 | 32 | 278 | 0.0 | 2.0 | 0.00 | 0.00 | 0.00 | 83 | 1012.4 |
| 20260503053004 | 31 | 300 | 0.0 | 1.0 | 0.00 | 0.00 | 0.00 | 82 | 1015.2 |
| 20260503052743 | 32 | 299 | 0.0 | 1.0 | 0.00 | 0.00 | 0.00 | 82 | 1012.5 |
| 20260503051844 | 32 | 300 | 0.0 | 2.0 | 0.00 | 0.00 | 0.00 | 81 | 1012.5 |
| 20260503051603 | 32 | 299 | 0.0 | 2.0 | 0.00 | 0.00 | 0.00 | 81 | 1015.3 |
| 20260503050944 | 32 | 288 | 0.0 | 2.0 | 0.00 | 0.00 | 0.00 | 81 | 1012.6 |
| 20260503050044 | 32 | 296 | 1.0 | 4.0 | 0.00 | 0.00 | 0.00 | 80 | 1012.7 |
| 20260503050010 | 32 | 280 | 0.0 | 4.0 | 0.00 | 0.00 | 0.00 | 80 | 1015.4 |
| 20260503045144 | 33 | 318 | 1.0 | 4.0 | 0.00 | 0.00 | 0.00 | 80 | 1012.7 |
| 20260503044243 | 33 | 297 | 1.0 | 4.0 | 0.00 | 0.00 | 0.00 | 78 | 1012.6 |
| 20260503043343 | 33 | 327 | 1.0 | 3.0 | 0.00 | 0.00 | 0.00 | 78 | 1012.7 |
| 20260503043004 | 33 | 326 | 1.0 | 3.0 | 0.00 | 0.00 | 0.00 | 78 | 1015.4 |
| 20260503041603 | 33 | 316 | 1.0 | 4.0 | 0.00 | 0.00 | 0.00 | 77 | 1015.6 |
| 20260503041544 | 34 | 321 | 2.0 | 3.0 | 0.00 | 0.00 | 0.00 | 77 | 1012.8 |
| 20260503040643 | 34 | 324 | 2.0 | 4.0 | 0.00 | 0.00 | 0.00 | 76 | 1012.9 |
| 20260503040005 | 34 | 328 | 1.0 | 4.0 | 0.00 | 0.00 | 0.00 | 77 | 1015.7 |
| 20260503035744 | 34 | 317 | 2.0 | 4.0 | 0.00 | 0.00 | 0.00 | 77 | 1013.0 |
| 20260503034844 | 34 | 320 | 1.0 | 3.0 | 0.00 | 0.00 | 0.00 | 76 | 1013.0 |
| 20260503034603 | 34 | 321 | 0.0 | 3.0 | 0.00 | 0.00 | 0.00 | 76 | 1015.7 |
| 20260503033944 | 35 | 305 | 1.0 | 5.0 | 0.00 | 0.00 | 0.00 | 76 | 1012.9 |
| 20260503033044 | 35 | 331 | 2.0 | 5.0 | 0.00 | 0.00 | 0.00 | 75 | 1013.1 |
| 20260503033007 | 34 | 310 | 1.0 | 5.0 | 0.00 | 0.00 | 0.00 | 75 | 1015.6 |
| 20260503032144 | 35 | 322 | 3.0 | 8.0 | 0.00 | 0.00 | 0.00 | 75 | 1013.1 |
| 20260503031608 | 35 | 316 | 2.0 | 6.0 | 0.00 | 0.00 | 0.00 | 74 | 1015.6 |
| 20260503031244 | 35 | 318 | 2.0 | 5.0 | 0.00 | 0.01 | 0.00 | 74 | 1013.0 |
| 20260503030005 | 35 | 1 | 1.0 | 6.0 | 0.00 | 0.00 | 0.00 | 74 | 1015.6 |
| 20260503025444 | 36 | 329 | 4.0 | 10.0 | 0.00 | 0.01 | 0.00 | 74 | 1013.1 |
| 20260503024603 | 35 | 333 | 3.0 | 10.0 | 0.00 | 0.01 | 0.00 | 73 | 1015.7 |
| 20260503023004 | 36 | 336 | 1.0 | 5.0 | 0.00 | 0.01 | 0.00 | 72 | 1015.8 |
| 20260503022744 | 36 | 320 | 3.0 | 5.0 | 0.00 | 0.01 | 0.00 | 72 | 1013.2 |
| 20260503021843 | 36 | 322 | 4.0 | 9.0 | 0.00 | 0.01 | 0.00 | 70 | 1013.3 |
| 20260503021603 | 36 | 357 | 3.0 | 9.0 | 0.00 | 0.01 | 0.00 | 70 | 1015.8 |
| 20260503020944 | 37 | 323 | 3.0 | 9.0 | 0.00 | 0.01 | 0.00 | 69 | 1013.2 |
| 20260503020043 | 37 | 323 | 2.0 | 5.0 | 0.00 | 0.01 | 0.00 | 66 | 1013.1 |
| 20260503020006 | 36 | 319 | 2.0 | 5.0 | 0.00 | 0.01 | 0.00 | 66 | 1015.7 |
| 20260503015144 | 37 | 319 | 2.0 | 4.0 | 0.00 | 0.01 | 0.00 | 67 | 1013.0 |
| 20260503014612 | 37 | 323 | 2.0 | 5.0 | 0.00 | 0.01 | 0.00 | 65 | 1015.6 |
| 20260503014244 | 37 | 312 | 2.0 | 5.0 | 0.00 | 0.01 | 0.00 | 65 | 1013.1 |
| 20260503013004 | 37 | 276 | 1.0 | 5.0 | 0.00 | 0.01 | 0.00 | 66 | 1015.7 |
| 20260503012443 | 37 | 319 | 2.0 | 3.0 | 0.00 | 0.01 | 0.00 | 65 | 1013.1 |
| 20260503011611 | 37 | 324 | 1.0 | 5.0 | 0.00 | 0.01 | 0.00 | 64 | 1015.6 |
| 20260503011544 | 38 | 311 | 2.0 | 4.0 | 0.00 | 0.01 | 0.00 | 64 | 1013.0 |
| 20260503010643 | 38 | 317 | 2.0 | 7.0 | 0.00 | 0.01 | 0.00 | 63 | 1013.0 |
| 20260503010103 | 37 | 236 | 1.0 | 5.0 | 0.00 | 0.01 | 0.00 | 65 | 1015.4 |
| 20260503005744 | 38 | 313 | 2.0 | 5.0 | 0.00 | 0.01 | 0.00 | 64 | 1012.8 |
| 20260503004843 | 38 | 314 | 1.0 | 2.0 | 0.00 | 0.01 | 0.00 | 63 | 1012.8 |
| 20260503004503 | 37 | 330 | 0.0 | 3.0 | 0.00 | 0.01 | 0.00 | 64 | 1015.4 |
| 20260503003103 | 38 | 319 | 3.0 | 7.0 | 0.00 | 0.01 | 0.00 | 62 | 1015.1 |
| 20260503003043 | 38 | 328 | 2.0 | 6.0 | 0.00 | 0.01 | 0.00 | 62 | 1012.5 |
| 20260503001506 | 38 | 305 | 0.0 | 4.0 | 0.00 | 0.01 | 0.00 | 63 | 1015.1 |
| 20260503001244 | 39 | 330 | 2.0 | 5.0 | 0.00 | 0.01 | 0.00 | 63 | 1012.5 |
| 20260503000343 | 39 | 330 | 1.0 | 5.0 | 0.00 | 0.02 | 0.00 | 62 | 1012.4 |
| 20260503000103 | 38 | 322 | 1.0 | 5.0 | 0.00 | 0.01 | 0.00 | 62 | 1015.0 |
| 20260502235444 | 39 | 327 | 1.0 | 4.0 | 0.00 | 0.02 | 0.00 | 63 | 1012.3 |
| 20260502234544 | 39 | 322 | 2.0 | 3.0 | 0.00 | 0.03 | 0.00 | 62 | 1012.2 |
| 20260502234504 | 39 | 325 | 2.0 | 3.0 | 0.00 | 0.02 | 0.00 | 62 | 1014.8 |
| 20260502233644 | 40 | 316 | 2.0 | 5.0 | 0.00 | 0.03 | 0.00 | 63 | 1012.2 |
| 20260502233102 | 39 | 300 | 2.0 | 6.0 | 0.00 | 0.02 | 0.00 | 62 | 1014.8 |
| 20260502232743 | 40 | 318 | 3.0 | 6.0 | 0.00 | 0.04 | 0.00 | 61 | 1012.2 |
| 20260502231843 | 40 | 324 | 2.0 | 8.0 | 0.00 | 0.04 | 0.00 | 61 | 1012.1 |
| 20260502231503 | 40 | 325 | 2.0 | 8.0 | 0.00 | 0.02 | 0.00 | 62 | 1014.7 |
| 20260502230944 | 40 | 324 | 2.0 | 4.0 | 0.00 | 0.05 | 0.00 | 64 | 1012.0 |
| 20260502230103 | 40 | 327 | 2.0 | 4.0 | 0.00 | 0.02 | 0.00 | 62 | 1014.5 |
| 20260502230044 | 40 | 338 | 2.0 | 5.0 | 0.00 | 0.05 | 0.00 | 62 | 1011.9 |
| 20260502225143 | 40 | 340 | 2.0 | 6.0 | 0.00 | 0.05 | 0.00 | 62 | 1012.0 |
| 20260502224245 | 41 | 325 | 2.0 | 7.0 | 0.00 | 0.05 | 0.00 | 63 | 1011.8 |
| 20260502223106 | 40 | 306 | 2.0 | 5.0 | 0.00 | 0.05 | 0.00 | 62 | 1014.4 |
| 20260502221543 | 41 | 321 | 2.0 | 4.0 | 0.00 | 0.07 | 0.00 | 66 | 1011.8 |
| 20260502221506 | 40 | 345 | 1.0 | 4.0 | 0.00 | 0.05 | 0.00 | 67 | 1014.4 |
| 20260502220644 | 41 | 333 | 3.0 | 8.0 | 0.00 | 0.07 | 0.00 | 66 | 1011.9 |
| 20260502220105 | 41 | 316 | 1.0 | 6.0 | 0.00 | 0.05 | 0.00 | 65 | 1014.4 |
| 20260502215744 | 41 | 324 | 2.0 | 5.0 | 0.00 | 0.07 | 0.00 | 65 | 1011.9 |
| 20260502214843 | 41 | 333 | 2.0 | 6.0 | 0.00 | 0.07 | 0.00 | 63 | 1011.8 |
| 20260502214506 | 41 | 333 | 0.0 | 4.0 | 0.00 | 0.07 | 0.00 | 64 | 1014.4 |
| 20260502213943 | 41 | 318 | 2.0 | 4.0 | 0.00 | 0.07 | 0.00 | 63 | 1011.8 |
| 20260502213105 | 41 | 11 | 1.0 | 5.0 | 0.00 | 0.07 | 0.00 | 63 | 1014.3 |
| 20260502213043 | 41 | 332 | 2.0 | 5.0 | 0.00 | 0.07 | 0.00 | 63 | 1011.7 |
| 20260502212144 | 41 | 326 | 2.0 | 5.0 | 0.00 | 0.08 | 0.00 | 65 | 1011.8 |
| 20260502211507 | 41 | 316 | 2.0 | 9.0 | 0.00 | 0.07 | 0.00 | 67 | 1014.3 |
| 20260502211243 | 41 | 340 | 4.0 | 9.0 | 0.00 | 0.08 | 0.00 | 67 | 1011.7 |
| 20260502210343 | 42 | 345 | 3.0 | 5.0 | 0.00 | 0.08 | 0.00 | 68 | 1011.7 |
| 20260502210117 | 41 | 328 | 2.0 | 7.0 | 0.00 | 0.07 | 0.00 | 68 | 1014.3 |
| 20260502205443 | 42 | 335 | 3.0 | 8.0 | 0.00 | 0.09 | 0.00 | 66 | 1011.7 |
| 20260502204544 | 41 | 329 | 3.0 | 5.0 | 0.00 | 0.10 | 0.00 | 67 | 1011.7 |
| 20260502204504 | 41 | 333 | 1.0 | 5.0 | 0.00 | 0.09 | 0.00 | 67 | 1014.3 |
| 20260502203643 | 42 | 329 | 3.0 | 9.0 | 0.00 | 0.11 | 0.00 | 71 | 1011.9 |
| 20260502203107 | 41 | 262 | 3.0 | 8.0 | 0.00 | 0.09 | 0.00 | 71 | 1014.4 |
| 20260502202745 | 41 | 336 | 2.0 | 9.0 | 0.00 | 0.11 | 0.00 | 72 | 1011.9 |
| 20260502201505 | 40 | 346 | 2.0 | 6.0 | 0.00 | 0.09 | 0.00 | 74 | 1014.6 |
| 20260502200104 | 40 | 342 | 2.0 | 5.0 | 0.00 | 0.09 | 0.00 | 71 | 1014.8 |
| 20260502194505 | 41 | 225 | 1.0 | 6.0 | 0.00 | 0.13 | 0.00 | 71 | 1014.9 |
| 20260502194244 | 41 | 334 | 2.0 | 6.0 | 0.00 | 0.13 | 0.00 | 72 | 1012.4 |
| 20260502193343 | 41 | 330 | 2.0 | 5.0 | 0.00 | 0.14 | 0.00 | 72 | 1012.4 |
| 20260502193109 | 41 | 319 | 1.0 | 5.0 | 0.00 | 0.13 | 0.00 | 71 | 1015.0 |
| 20260502192443 | 41 | 348 | 2.0 | 6.0 | 0.00 | 0.14 | 0.00 | 72 | 1012.5 |
| 20260502191543 | 41 | 347 | 1.0 | 5.0 | 0.00 | 0.14 | 0.00 | 70 | 1012.7 |
| 20260502191505 | 40 | 61 | 1.0 | 5.0 | 0.00 | 0.13 | 0.00 | 70 | 1015.2 |
| 20260502190644 | 41 | 25 | 2.0 | 4.0 | 0.00 | 0.15 | 0.00 | 72 | 1012.7 |
| 20260502190111 | 40 | 5 | 1.0 | 5.0 | 0.00 | 0.13 | 0.00 | 70 | 1015.3 |
| 20260502185744 | 41 | 356 | 1.0 | 5.0 | 0.00 | 0.16 | 0.00 | 70 | 1012.7 |
| 20260502184843 | 41 | 357 | 1.0 | 4.0 | 0.00 | 0.17 | 0.00 | 70 | 1012.7 |